Weather in Bergen aan Zee

Netherlands     52°39′37″N   4°37′53″E
temp.,
°C
wind,
m/s
gust,
m/s
humid.,
%
clouds,
%
prec.,
mm/h
press.,
hPa
HPBL,
m
20 january, wed
wed2001:00+8sw142285100 0.9 998919
04:00+8ssw142385100 0.1 996881
07:00+8ssw132184100 1.2 994826
10:00+8ssw132180100 0.1 994820
13:00+8ssw121984100 0.4 993836
16:00+8s111973100 0.3 991761
19:00+8ssw102069100 0.3 990839
22:00+8ssw101973100 0.3 988994
21 january, thu
thu2101:00+9s10217791 0.5 9841146
04:00+10s152678100 1.3 9771462
07:00+6wsw15217299 2.4 9831547
10:00+6sw13206827 0.0 9861464
13:00+8sw15236829 0.3 9871910
16:00+7sw152274100 0.4 9861531
19:00+6sw121883100 0.6 9861006
22:00+5ssw8128899 0.2 983768
22 january, fri
fri2201:00+4wsw5888100 1.0 982587
04:00+5w81278100 0.4 984718
07:00+4wsw8137650 0.4 987668
10:00+5wsw813750 0.0 989951
13:00+6wsw811700 0.0 9911039
16:00+5w587668 0.0 991642
19:00+3w338284 0.0 99289
22:00+3wsw2380100 0.0 99378
23 january, sat
sat2301:00+2wsw3381100 0.0 99492
04:00+2w348367 0.0 99496
07:00+2w238561 0.0 99581
10:00+3w227716 0.0 99692
13:00+5wnw336528 0.1 9971005
16:00+4wnw236985 0.1 997132
19:00+2nw126992 0.1 99776
22:00+2nne0169100 0.0 99743
24 january, sun
sun2401:00+2w1170100 0.0 99746
04:00+1nw1269100 0.0 99777
07:00+1wsw1271100 0.1 99862
10:00+2ssw227085 0.0 998107
13:00+5sw455842 0.0 9981188
16:00+3ssw366942 0.0 998253
19:00+1s457344 0.0 999116
22:000s47824 0.0 999173